[[{"header":{"parameterUnit":"m.s-1","parameterCategory":1,"la1":30.2991,"la2":30.254,"lo1":-89.0895,"lo2":-89.0444,"dy":0.0017,"dx":0.0017,"nx":28,"ny":28,"refTime":"2025-03-30T21:00:00:Z","depth":0,"parameterNumber":2,"parameterNumberName":"U-component_of_WINDS"},"data":[0,0,0,0,0,0,0,0,0,0,0,0,0,0,0,0,0,0,0,0,0,0,0,0,0,0,0,0,0,0,0,0,0,0,0,0,0,0,0,0,0,0,0,0,0,0,0,0,0,0,0,0,0,0,0,0,0,0,-0.1624,-0.1622,0,-0.1393,-0.139,-0.1388,-0.13,-0.1301,-0.1302,-0.1302,-0.1055,-0.1048,-0.1041,0,0,0,0,0,0,0,0,0,0,0,0,0,-0.1982,-0.1976,-0.1624,-0.1622,-0.1619,-0.1394,-0.139,-0.1387,-0.13,-0.1301,-0.1302,-0.1303,-0.1058,-0.1049,-0.104,0,0,0,0,0,0,0,0,0,0,0,0,0,-0.1796,-0.1974,-0.1625,-0.1548,-0.1539,-0.1394,-0.139,-0.1386,-0.13,-0.1301,-0.1302,-0.1303,-0.106,-0.105,-0.1039,-0.095,0,0,-0.1006,-0.1001,0,0,0,0,0,0,0,0,-0.1807,-0.1783,-0.1562,-0.1553,-0.1543,-0.1377,-0.1426,-0.124,-0.13,-0.139,-0.1302,-0.1304,-0.1161,-0.1142,-0.1095,-0.0939,-0.0928,-0.1005,-0.0998,-0.0994,-0.0991,0,0,0,0,0,0,0,-0.182,-0.1793,-0.1532,-0.1559,-0.1547,-0.1523,-0.1498,-0.139,-0.1272,-0.1383,-0.1376,-0.135,-0.1155,-0.1106,-0.1089,-0.0924,-0.1005,-0.0996,-0.0989,-0.0985,-0.0684,-0.0682,0,0,0,0,0,0,-0.1847,-0.1804,-0.154,-0.1526,-0.1681,-0.1516,-0.1487,-0.1429,-0.1273,-0.125,-0.1349,-0.1347,-0.1124,-0.1102,-0.108,-0.0966,-0.0994,-0.0984,-0.0977,-0.0685,-0.0683,-0.0682,0,0,0,0,0,0,-0.1855,-0.1824,-0.1549,-0.1663,-0.1626,-0.1508,-0.1443,-0.1424,-0.1374,-0.1248,-0.1226,-0.1321,-0.1124,-0.1095,-0.0984,-0.0956,-0.0979,-0.0969,-0.0687,-0.0684,-0.0682,-0.0737,0,0,0,0,0,0,-0.1866,-0.1828,-0.1794,-0.1663,-0.162,-0.146,-0.1441,-0.1418,-0.1357,-0.1352,-0.1216,-0.1194,-0.1123,-0.1001,-0.0973,-0.0941,-0.096,-0.0689,-0.0686,-0.0683,-0.0737,-0.0737,-0.0737,0,0,0,0,0,-0.1879,-0.1816,-0.1793,-0.1762,-0.1577,-0.1458,-0.1433,-0.1356,-0.1355,-0.132,-0.1239,-0.1198,-0.0964,-0.099,-0.0958,-0.0923,-0.069,-0.0687,-0.0683,-0.0737,-0.0737,-0.0737,0,0,0,0,0,0,-0.1942,-0.1797,-0.177,-0.1664,-0.1575,-0.1444,-0.1396,-0.1358,-0.1264,-0.1262,-0.1167,-0.1137,-0.1033,-0.0967,-0.0998,-0.0829,-0.0824,-0.0814,-0.0876,-0.0875,-0.0875,-0.0892,-0.0951,0,0,0,0,0,-0.1946,-0.1864,-0.174,-0.1659,-0.1616,-0.1515,-0.146,-0.1408,-0.131,-0.1271,-0.1181,-0.1085,-0.099,-0.0929,-0.0834,-0.0728,-0.0696,-0.0688,-0.0688,-0.0688,-0.068,-0.0619,-0.0614,-0.0671,-0.0671,-0.0671,0,0,-0.1948,-0.1859,-0.1812,-0.1669,-0.1594,-0.151,-0.1483,-0.1394,-0.133,-0.1256,-0.1146,-0.1078,-0.0964,-0.0856,-0.0803,-0.0797,-0.0658,-0.0684,-0.0686,-0.0677,-0.0615,-0.061,-0.0606,-0.0669,-0.0669,-0.0669,0,0,-0.191,-0.1835,-0.1759,-0.1686,-0.1574,-0.1507,-0.149,-0.1365,-0.1318,-0.1208,-0.1151,-0.1072,-0.091,-0.0832,-0.0771,-0.0708,-0.0667,-0.0679,-0.0677,-0.0619,-0.0615,-0.061,-0.0587,-0.058,-0.0672,-0.0672,-0.0672,0,-0.1926,-0.18,-0.1724,-0.164,-0.1578,-0.1513,-0.1434,-0.1365,-0.1226,-0.1184,-0.1181,-0.0978,-0.0896,-0.0769,-0.0754,-0.0707,-0.0682,-0.0693,-0.0622,-0.0617,-0.0611,-0.0588,-0.058,-0.0674,-0.0674,-0.0674,-0.0674,0,-0.1826,-0.1739,-0.1691,-0.1564,-0.1497,-0.1415,-0.1325,-0.1266,-0.1221,-0.1155,-0.1043,-0.0944,-0.0829,-0.0795,-0.0749,-0.0661,-0.0661,-0.0642,-0.0634,-0.061,-0.0586,-0.0576,-0.0678,-0.0677,-0.0676,-0.0676,0,0,-0.1817,-0.1653,-0.1636,-0.1579,-0.1452,-0.1382,-0.1298,-0.119,-0.114,-0.1048,-0.0973,-0.084,-0.0822,-0.0753,-0.0697,-0.0647,-0.0603,-0.0633,-0.0628,-0.063,-0.05,-0.0515,-0.0506,-0.0577,-0.0575,-0.0573,-0.0509,0,-0.1762,-0.1612,-0.1543,-0.1422,-0.1341,-0.1279,-0.1206,-0.1119,-0.1056,-0.0975,-0.0903,-0.081,-0.0794,-0.0752,-0.0699,-0.062,-0.0575,-0.0623,-0.0504,-0.05,-0.0533,-0.0493,-0.0507,-0.0452,-0.0499,-0.0498,-0.0496,0,-0.1675,-0.1588,-0.1461,-0.1347,-0.131,-0.1246,-0.1141,-0.1066,-0.0967,-0.0924,-0.085,-0.0797,-0.0704,-0.0706,-0.0576,-0.0611,-0.0558,-0.0512,-0.0508,-0.0491,-0.0496,-0.0474,-0.0432,-0.0423,-0.0481,-0.0482,-0.0484,0,-0.1682,-0.1532,-0.1437,-0.1389,-0.1253,-0.121,-0.115,-0.1052,-0.0992,-0.09,-0.086,-0.0758,-0.0701,-0.0622,-0.0542,-0.0552,-0.042,-0.0415,-0.0379,-0.0382,-0.0352,-0.0354,-0.0299,-0.0322,-0.0322,-0.0322,-0.0322,0,-0.1625,-0.1549,-0.1438,-0.1379,-0.1293,-0.1214,-0.1129,-0.1065,-0.0979,-0.0905,-0.0845,-0.0776,-0.0677,-0.0595,-0.0532,-0.0434,-0.0408,-0.0369,-0.0353,-0.0374,-0.0379,-0.0336,-0.0337,-0.032,-0.032,-0.0321,-0.0321,0,-0.1615,-0.1538,-0.1431,-0.1313,-0.1282,-0.1223,-0.1121,-0.106,-0.0996,-0.0903,-0.0877,-0.0774,-0.0675,-0.0589,-0.0457,-0.0415,-0.0313,-0.0294,-0.0348,-0.0339,-0.0308,-0.0311,-0.0221,-0.0205,-0.0241,-0.0241,-0.0241,0,-0.1584,-0.1525,-0.1403,-0.1351,-0.1294,-0.1211,-0.1151,-0.1071,-0.101,-0.0895,-0.0848,-0.0746,-0.0659,-0.0504,-0.0415,-0.0314,-0.0291,-0.0267,-0.0275,-0.0298,-0.0289,-0.0293,-0.0286,-0.0266,-0.0266,-0.0266,-0.0266,0,-0.1535,-0.1501,-0.1418,-0.1323,-0.1254,-0.1174,-0.1092,-0.1052,-0.0957,-0.0892,-0.0792,-0.0726,-0.0594,-0.0492,-0.0383,-0.0318,-0.0275,-0.0265,-0.0251,-0.027,-0.0303,-0.0284,-0.0346,-0.0266,-0.0266,-0.0266,-0.0266,-0.0266,-0.1511,-0.1457,-0.1364,-0.1274,-0.1206,-0.1131,-0.107,-0.1,-0.0917,-0.0805,-0.0763,-0.0661,-0.0564,-0.0413,-0.0349,-0.0267,-0.0259,-0.024,-0.0234,-0.023,-0.0233,-0.032,-0.0246,-0.0246,-0.0246,-0.0246,-0.0246,0,-0.1459,-0.1397,-0.1316,-0.1206,-0.1135,-0.1107,-0.1016,-0.0957,-0.087,-0.0785,-0.0703,-0.0589,-0.0491,-0.0397,-0.0294,-0.0246,-0.0224,-0.0222,-0.0223,-0.0209,-0.0246,-0.0268,-0.0242,-0.0242,-0.0242,-0.0242,-0.0242,-0.0242,-0.1423,-0.133,-0.1285,-0.1157,-0.1094,-0.0997,-0.0948,-0.0878,-0.081,-0.0687,-0.0607,-0.0549,-0.0459,-0.035,-0.0259,-0.0233,-0.0197,-0.02,-0.0169,-0.0205,-0.0206,-0.0207,-0.0227,-0.0193,-0.0193,-0.0139,-0.0138,-0.0138]},{"header":{"parameterUnit":"m.s-1","parameterCategory":1,"la1":30.2991,"la2":30.254,"lo1":-89.0895,"lo2":-89.0444,"dy":0.0017,"dx":0.0017,"nx":28,"ny":28,"refTime":"2025-03-30T21:00:00:Z","depth":0,"parameterNumber":3,"parameterNumberName":"V-component_of_WINDS"},"data":[0,0,0,0,0,0,0,0,0,0,0,0,0,0,0,0,0,0,0,0,0,0,0,0,0,0,0,0,0,0,0,0,0,0,0,0,0,0,0,0,0,0,0,0,0,0,0,0,0,0,0,0,0,0,0,0,0,0,-2.263,-2.263,0,-2.258,-2.2579,-2.2579,-2.2539,-2.2539,-2.2538,-2.2538,-2.2481,-2.2479,-2.2478,0,0,0,0,0,0,0,0,0,0,0,0,0,-2.2689,-2.2688,-2.263,-2.263,-2.2629,-2.258,-2.2579,-2.2578,-2.2539,-2.2539,-2.2538,-2.2538,-2.2481,-2.248,-2.2478,0,0,0,0,0,0,0,0,0,0,0,0,0,-2.2653,-2.2688,-2.263,-2.2604,-2.2601,-2.258,-2.2579,-2.2578,-2.2539,-2.2539,-2.2538,-2.2537,-2.2481,-2.248,-2.2478,-2.2478,0,0,-2.2473,-2.2472,0,0,0,0,0,0,0,0,-2.2655,-2.2651,-2.2608,-2.2605,-2.2602,-2.2565,-2.2579,-2.2545,-2.2539,-2.2562,-2.2538,-2.2537,-2.2509,-2.2505,-2.2496,-2.2476,-2.2473,-2.2472,-2.2471,-2.2471,-2.247,0,0,0,0,0,0,0,-2.2658,-2.2653,-2.261,-2.2608,-2.2604,-2.2593,-2.2587,-2.2572,-2.2539,-2.256,-2.2557,-2.2552,-2.2507,-2.2498,-2.2495,-2.2472,-2.2472,-2.2471,-2.247,-2.2469,-2.2449,-2.2449,0,0,0,0,0,0,-2.2665,-2.2655,-2.2612,-2.2609,-2.2628,-2.2592,-2.2586,-2.2578,-2.2539,-2.2533,-2.2553,-2.255,-2.2501,-2.2497,-2.2493,-2.249,-2.2471,-2.2469,-2.2468,-2.2448,-2.2449,-2.245,0,0,0,0,0,0,-2.2666,-2.2662,-2.2614,-2.2631,-2.2624,-2.2592,-2.2583,-2.2577,-2.2568,-2.2534,-2.2527,-2.255,-2.2501,-2.2495,-2.2482,-2.2487,-2.2468,-2.2467,-2.2448,-2.2449,-2.2449,-2.2485,0,0,0,0,0,0,-2.2668,-2.2662,-2.2663,-2.2632,-2.2624,-2.2606,-2.2583,-2.2576,-2.2566,-2.2562,-2.2529,-2.2523,-2.25,-2.2485,-2.2481,-2.2484,-2.2465,-2.2447,-2.2448,-2.2449,-2.2483,-2.2487,-2.249,0,0,0,0,0,-2.2671,-2.2674,-2.2663,-2.2658,-2.2624,-2.2606,-2.2601,-2.2576,-2.2566,-2.2566,-2.2544,-2.2524,-2.2488,-2.2484,-2.2479,-2.2482,-2.2447,-2.2448,-2.2449,-2.2481,-2.2486,-2.249,0,0,0,0,0,0,-2.2704,-2.2669,-2.2657,-2.265,-2.2632,-2.26,-2.2598,-2.2582,-2.2564,-2.2562,-2.253,-2.2523,-2.2513,-2.2496,-2.2493,-2.248,-2.2465,-2.2465,-2.2491,-2.2495,-2.2499,-2.2502,-2.2464,0,0,0,0,0,-2.2711,-2.2702,-2.2671,-2.2668,-2.266,-2.2631,-2.2622,-2.2605,-2.2583,-2.2575,-2.2552,-2.2531,-2.2514,-2.2504,-2.2487,-2.2481,-2.2473,-2.2481,-2.2484,-2.2487,-2.2487,-2.2482,-2.2485,-2.2453,-2.2453,-2.2453,0,0,-2.2725,-2.2705,-2.27,-2.2674,-2.2658,-2.2647,-2.2624,-2.2614,-2.2605,-2.2572,-2.256,-2.2542,-2.2516,-2.2507,-2.2502,-2.2493,-2.2494,-2.2489,-2.2491,-2.2489,-2.2484,-2.2487,-2.2489,-2.2454,-2.2454,-2.2454,0,0,-2.2744,-2.2728,-2.2724,-2.2709,-2.2685,-2.2666,-2.2666,-2.2636,-2.2624,-2.2611,-2.2587,-2.2576,-2.2549,-2.2531,-2.2519,-2.2534,-2.2514,-2.2529,-2.2546,-2.2541,-2.2544,-2.2546,-2.255,-2.2552,-2.2529,-2.2529,-2.2529,0,-2.2763,-2.2747,-2.2724,-2.2715,-2.2704,-2.2677,-2.2672,-2.2658,-2.2629,-2.2621,-2.2613,-2.2579,-2.2559,-2.2545,-2.2549,-2.2541,-2.2537,-2.2531,-2.2546,-2.2548,-2.2549,-2.2553,-2.2554,-2.2531,-2.2531,-2.2531,-2.2531,0,-2.2772,-2.2762,-2.2761,-2.2736,-2.2725,-2.2718,-2.2692,-2.2684,-2.2668,-2.265,-2.2637,-2.2613,-2.2591,-2.2587,-2.2571,-2.2571,-2.2566,-2.2552,-2.2535,-2.2554,-2.2557,-2.2558,-2.2534,-2.2533,-2.2533,-2.2532,0,0,-2.2808,-2.2773,-2.2773,-2.2761,-2.2734,-2.2725,-2.2717,-2.2697,-2.269,-2.2672,-2.2663,-2.2642,-2.2629,-2.2615,-2.2597,-2.2593,-2.2605,-2.2579,-2.2578,-2.2584,-2.2603,-2.2613,-2.2615,-2.2594,-2.2594,-2.2594,-2.2605,0,-2.2822,-2.2808,-2.2787,-2.2778,-2.2768,-2.2743,-2.2736,-2.2718,-2.2701,-2.2689,-2.2669,-2.2655,-2.264,-2.2631,-2.2627,-2.2605,-2.2609,-2.2604,-2.2583,-2.2583,-2.2589,-2.2616,-2.2626,-2.2638,-2.2606,-2.2606,-2.2606,0,-2.2836,-2.2821,-2.2812,-2.2787,-2.2781,-2.2776,-2.2756,-2.2745,-2.2724,-2.2712,-2.2698,-2.2679,-2.2667,-2.2654,-2.2638,-2.2635,-2.2625,-2.2614,-2.2614,-2.2609,-2.2594,-2.2611,-2.2641,-2.2642,-2.2608,-2.2608,-2.2608,0,-2.2862,-2.284,-2.2832,-2.2823,-2.2793,-2.2789,-2.2777,-2.2755,-2.2745,-2.2728,-2.2721,-2.2702,-2.2691,-2.2677,-2.2652,-2.2645,-2.2638,-2.2623,-2.2626,-2.2627,-2.2624,-2.2624,-2.2651,-2.2621,-2.2621,-2.2621,-2.2621,0,-2.2878,-2.2874,-2.2843,-2.2838,-2.2832,-2.2808,-2.2802,-2.2787,-2.2768,-2.2759,-2.2736,-2.2727,-2.2696,-2.2684,-2.2664,-2.2653,-2.2649,-2.2637,-2.2632,-2.2639,-2.264,-2.263,-2.2628,-2.2621,-2.2621,-2.2621,-2.2621,0,-2.2906,-2.2885,-2.2875,-2.2849,-2.2842,-2.2838,-2.2815,-2.2808,-2.2792,-2.278,-2.2775,-2.2748,-2.2732,-2.2707,-2.2683,-2.267,-2.2661,-2.2654,-2.2669,-2.2666,-2.267,-2.267,-2.269,-2.2692,-2.2662,-2.2663,-2.2663,0,-2.2917,-2.2913,-2.2887,-2.288,-2.2868,-2.2857,-2.2847,-2.2824,-2.2814,-2.2791,-2.2787,-2.277,-2.2754,-2.273,-2.2706,-2.2688,-2.2678,-2.2687,-2.2675,-2.2682,-2.2677,-2.2677,-2.2676,-2.2689,-2.269,-2.269,-2.269,0,-2.2938,-2.2929,-2.2916,-2.2901,-2.2891,-2.2877,-2.2862,-2.2857,-2.283,-2.282,-2.2805,-2.2793,-2.277,-2.2752,-2.2731,-2.2716,-2.2698,-2.2695,-2.2694,-2.27,-2.2709,-2.2703,-2.2675,-2.2694,-2.2694,-2.2693,-2.2693,-2.2693,-2.2956,-2.2952,-2.2933,-2.292,-2.2907,-2.2894,-2.2887,-2.287,-2.2858,-2.2838,-2.2825,-2.281,-2.2789,-2.2759,-2.2745,-2.2732,-2.2724,-2.2724,-2.2723,-2.2723,-2.2725,-2.2713,-2.2728,-2.2728,-2.2728,-2.2728,-2.2728,0,-2.2975,-2.2963,-2.2952,-2.2932,-2.2922,-2.291,-2.2893,-2.2884,-2.2872,-2.2855,-2.2842,-2.2824,-2.2807,-2.2784,-2.2765,-2.2759,-2.2751,-2.2755,-2.2754,-2.2751,-2.2734,-2.2736,-2.2762,-2.2762,-2.2762,-2.2762,-2.2762,-2.2762,-2.2984,-2.2976,-2.2964,-2.2949,-2.2936,-2.2923,-2.2914,-2.2902,-2.2888,-2.287,-2.2857,-2.2843,-2.2823,-2.2803,-2.2787,-2.278,-2.2774,-2.278,-2.2771,-2.2755,-2.2752,-2.2749,-2.275,-2.278,-2.278,-2.2789,-2.2789,-2.2789]}]]